sat.trackr.live / text

‹ back to catalog

STARLINK-35656

NORAD 66391 · 2025-257M

PAYLOAD ACTIVE UNKNOWN

§ Identity

Operator
Country
US
Launch date
2025-11-09
Launch site
AFETR
Launch vehicle
Mass (kg)
RCS (m²)

Purposes: comms

External: N2YO · Heavens-Above · Gunter

§ Orbital elements

Epoch: 2026-05-24T17:13:23.751264Z

Period
94.11 min
Inclination
53.1575°
Eccentricity
0.0000916
Mean motion
15.30200941 rev/d
Perigee alt
474.6 km
Apogee alt
475.8 km
Semi-major
6,853.3 km
B*
4.9281e-4
RAAN
226.7139°
Arg perigee
94.2045°
Mean anomaly
265.9061°
Rev number
3,143

§ Raw data

STARLINK-356561 66391U 25257M   26144.71763601  .00014265  00000+0  49281-3 0  99982 66391  53.1575 226.7139 0000916  94.2045 265.9061 15.30200941 31438

JSON: /api/v1/satellites/66391 · /tle

For live sub-satellite position, see the globe view (requires WebGL).

§ Visibility from observer

Set your observer location to see the next 7 days of passes ≥ 10°. The values pass through the URL so the page stays shareable.

No JS? Fill the form by hand. The geolocation button needs JavaScript.